This demonstration page uses our WeatherBlox Daily Observations layout. Learn more.

Left ArrowRight Arrow

Hourly Observations for February 8, 2015

Temp ( °F °C ) Dew Point ( °F °C ) Humidity (%) Winds ( mph kmh ) Pressure ( in mb ) Visibility ( mi km ) Precip ( " mm )
12:53 am 00:53 Clear 54 12.2 27 -2.8 35 35 W 9 15 29.83 1010 10 16 0.00 0.00
1:53 am 01:53 Clear 57 13.9 26 -3.3 30 30 W 13 20 29.81 1010 10 16 0.00 0.00
2:53 am 02:53 Clear 54 12.2 26 -3.3 34 34 W 10 17 29.81 1010 10 16 0.00 0.00
3:53 am 03:53 Clear 52 11.1 26 -3.3 37 37 W 8 13 29.81 1010 10 16 0.00 0.00
4:53 am 04:53 Clear 48 8.9 27 -2.8 44 44 NW 12 19 29.83 1010 10 16 0.00 0.00
5:53 am 05:53 Clear 55 12.8 25 -3.9 31 31 W 14 22 29.84 1010 10 16 0.00 0.00
6:53 am 06:53 Clear 54 12.2 25 -3.9 33 33 W 13 20 29.85 1011 10 16 0.00 0.00
7:53 am 07:53 Sunny 49 9.4 26 -3.3 41 41 W 5 7 29.90 1013 10 16 0.00 0.00
8:53 am 08:53 Sunny 54 12.2 29 -1.7 38 38 WSW 6 9 29.93 1013 10 16 0.00 0.00
9:53 am 09:53 Sunny 71 21.7 24 -4.4 17 17 N 13 20 29.92 1013 10 16 0.00 0.00
10:53 am 10:53 Sunny 75 23.9 21 -6.1 13 13 N 18 30 29.93 1014 10 16 0.00 0.00
11:53 am 11:53 Sunny 79 26.1 19 -7.2 10 10 NNE 23 37 29.93 1014 10 16 0.00 0.00
12:53 pm 12:53 Sunny 79 26.1 19 -7.2 10 10 NNE 14 22 29.93 1013 10 16 0.00 0.00
1:53 pm 13:53 Sunny 79 26.1 21 -6.1 11 11 ENE 12 19 29.91 1013 10 16 0.00 0.00
2:53 pm 14:53 Sunny 79 26.1 22 -5.6 12 12 ENE 14 22 29.91 1013 10 16 0.00 0.00
3:53 pm 15:53 Sunny 79 26.1 23 -5 12 12 VRB 7 11 29.91 1013 10 16 0.00 0.00
4:53 pm 16:53 Sunny 79 26.1 22 -5.6 12 12 ENE 13 20 29.92 1013 10 16 0.00 0.00
5:53 pm 17:53 Sunny 76 24.4 23 -5 14 14 ENE 7 11 29.93 1013 10 16 0.00 0.00
6:53 pm 18:53 Clear 69 20.6 25 -3.9 19 19 E 7 11 29.97 1015 10 16 0.00 0.00
7:53 pm 19:53 Clear 62 16.7 26 -3.3 25 25 E 7 11 30.01 1016 10 16 0.00 0.00
8:53 pm 20:53 Clear 60 15.6 26 -3.3 27 27 E 6 9 30.02 1017 10 16 0.00 0.00
9:53 pm 21:53 Clear 57 13.9 26 -3.3 30 30 E 5 7 30.01 1016 10 16 0.00 0.00
10:53 pm 22:53 Clear 54 12.2 28 -2.2 37 37 Calm 30.01 1016 10 16 0.00 0.00
11:53 pm 23:53 Clear 47 8.3 31 -0.6 54 54 N 6 9 30.03 1017 10 16 0.00 0.00

Powered by AerisWeather